AirNav   Pilot Hours Calculator
 
 1288 users online  

1MN5 Molnau Airpark
Waconia, Minnesota, USA

GOING TO WACONIA?


FAA INFORMATION EFFECTIVE 01 DECEMBER 2022

Location

FAA Identifier: 1MN5
Lat/Long: 44-50-36.8640N 093-44-23.8650W
44-50.614400N 093-44.397750W
44.8435733,-93.7399625
(estimated)
Elevation: 1000 ft. / 305 m (estimated)
Variation: 04E (1985)
From city: 2 miles SE of WACONIA, MN
Time zone: UTC -6 (UTC -5 during Daylight Saving Time)
Zip code: 55387

Airport Operations

Airport use: Private use. Permission required prior to landing
Activation date: 03/1976
Control tower: no
ARTCC: MINNEAPOLIS CENTER
FSS: PRINCETON FLIGHT SERVICE STATION
Attendance: UNATNDD
Wind indicator: yes
Segmented circle: no
Landing fee: yes

Airport Communications

WX ASOS at FCM (12 nm E): PHONE 952-941-4156
WX AWOS-3 at GYL (15 nm W): 119.625 (320-864-5830)
WX AWOS-3PT at CFE (19 nm N): 120.45 (763-684-0762)

Nearby radio navigation aids

VOR radial/distance  VOR name  Freq  Var
FCMr274/12.7FLYING CLOUD VOR/DME117.7001E
MSPr260/21.6MINNEAPOLIS VOR/DME115.3002E
GEPr215/23.9GOPHER VORTAC117.3006E
FGTr292/27.0FARMINGTON VORTAC115.7006E
DWNr109/33.7DARWIN VORTAC109.0007E
MKTr004/38.1MANKATO VOR/DME110.8007E

Airport Services

Runway Information

Runway E/W

Dimensions: 2700 x 100 ft. / 823 x 30 m
Surface: turf
RUNWAY E  RUNWAY W
Traffic pattern: leftleft

Airport Ownership and Management from official FAA records

Ownership: Privately-owned
Owner: RICHARD J. MOLNAU
8735 REITZ LAKE ROAD
WACONIA, MN 55387
Phone 952-442-4259
Manager: RICHARD J. MOLNAU
8735 REITZ LAKE ROAD
WACONIA, MN 55387
Phone 952-442-4259

Airport Operational Statistics

Aircraft based on the field: 16
Single engine airplanes: 16
    

Additional Remarks

FOR CD CTC MINNEAPOLIS ARTCC AT 651-463-5588.

Instrument Procedures

There are no published instrument procedures at 1MN5.

Some nearby airports with instrument procedures:

KFCM - Flying Cloud Airport (12 nm E)
KGYL - Glencoe Municipal Airport (15 nm W)
KCFE - Buffalo Municipal Airport (19 nm N)
KMIC - Crystal Airport (21 nm NE)
KMSP - Minneapolis-St Paul International/Wold-Chamberlain Airport (22 nm E)
 
Loc | Ops | Rwys | IFR | FBO | Links
Com | Nav | Svcs | Stats | Notes
Area around 1MN5 (Molnau Airpark)
 
Road maps at: MapQuest Bing Google
 
Aerial photo
No photo
 
Sectional chart

 
Airport distance calculator
Flying to Molnau Airpark? Find the distance to fly.

From to 1MN5

Sunrise and sunset
Times for 08-Dec-2022
 Local
(UTC-6)
 Zulu
(UTC)
Morning civil twilight07:0713:07
Sunrise07:4113:41
Sunset16:3322:33
Evening civil twilight17:0623:06

Current date and time
Zulu (UTC)  08-Dec-2022 14:07:43
Local (UTC-6)  08-Dec-2022 08:07:43
 
METAR
KFCM 
12nm E 
081353Z 00000KT 9SM CLR M13/M16 A3036 RMK AO2 SLP301 T11331161
KGYL 
16nm W 
081355Z AUTO 00000KT 5SM BR CLR M16/M18 A3035 RMK AO2 T11591177
KCFE 
19nm N 
081355Z AUTO 00000KT 9SM CLR M19/M21 A3036 RMK AO2
KMIC 
21nm NE 
081353Z 00000KT 10SM CLR M16/M18 A3036 RMK AO2 SLP304 T11561183
KMSP 
22nm E 
081353Z 13004KT 9SM CLR M13/M15 A3038 RMK AO2 SLP306 T11281150 $
TAF
NOTAMs
Click for the latest NOTAMs
NOTAMs are issued by the DoD/FAA and will open in a separate window not controlled by AirNav.

 

 
 

Would you like to see your business listed on this page?

 If your business provides an interesting product or service to pilots, flight crews, aircraft, or users of the Molnau Airpark, you should consider listing it here.  To start the listing process, click on the button below
 
Add a business
 

Other Pages about Molnau Airpark

Update a link
 
Copyright © AirNav, LLC. All rights reserved. Privacy Policy  Contact